Flag for U.S.A. Weather past 2 weeks in New York, New York, U.S.A.

Now
50 °F

Clear.


Feels Like: 48 °F
Forecast: 49 / 60 °F
Wind: 5 mph from North

Location: New York City - Central Park

Current Time: Apr 19, 2015 at 9:49:39 PM

Latest Report: Apr 19, 2015 at 8:51 PM


Visibility: 10 mi

Pressure: 30.21 "Hg

Humidity: 48%

Dew point: 31 °F

Location of New YorkLocation

Historic Weather in New York — Graph

°F

New York temperature yesterday

Maximum temperature yesterday: 79 °F (at 3:51 PM)
Minimum temperature yesterday: 59 °F (at 5:51 AM)
Average temperature yesterday: 68 °F

Past Weeks' High & Low Weather Summary

 TemperatureHumidityPressure
High79 °F (Apr 18, 3:51 PM)93% (Apr 10, 12:51 AM)30.48 "Hg (Apr 10, 12:51 AM)
Low37 °F (Apr 8, 10:51 PM)12% (Apr 15, 5:51 PM)29.76 "Hg (Apr 10, 6:51 PM)
Average54 °F52%30.17 "Hg
* Reported Apr 4 8:51 PM — Apr 19 8:51 PM, New York, Weather by CustomWeather, © 2015

Note: Actual official high and low records may vary slightly from our data, if they occured in-between our weather recording intervals... More about our weather records

Advertising

New York weather history for previous 24 hours

 ConditionsComfort  
Time TempWeatherWind HumidityBarometerVisibility
8:51 PM
Sun, Apr 19
50 °FClear.5 mph48%30.21 "Hg10 mi
7:51 PM51 °FSunny.7 mph46%30.20 "Hg10 mi
6:51 PM51 °FSunny.8 mph48%30.20 "Hg10 mi
5:51 PM54 °FSunny.9 mph43%30.20 "Hg10 mi
4:51 PM55 °FSunny.12 mph40%30.20 "Hg10 mi
3:51 PM57 °FSunny.7 mph39%30.19 "Hg10 mi
2:51 PM57 °FSunny.9 mph41%30.21 "Hg10 mi
1:51 PM58 °FSunny.N/A39%30.23 "Hg10 mi
12:51 PM63 °FSunny.6 mph30%30.24 "Hg10 mi
11:51 AM61 °FSunny.7 mph30%30.25 "Hg10 mi
10:51 AM59 °FSunny.10 mph32%30.26 "Hg10 mi
9:51 AM56 °FSunny.10 mph36%30.26 "Hg10 mi
8:51 AM56 °FSunny.10 mph33%30.25 "Hg10 mi
7:51 AM54 °FSunny.7 mph34%30.24 "Hg10 mi
6:51 AM54 °FClear.10 mph33%30.20 "Hg10 mi
5:51 AM54 °FClear.8 mph31%30.17 "Hg10 mi
4:51 AM55 °FClear.9 mph29%30.16 "Hg10 mi
3:51 AM57 °FClear.12 mph23%30.14 "Hg10 mi
2:51 AM59 °FClear.8 mph22%30.11 "Hg10 mi
1:51 AM61 °FClear.5 mph27%30.09 "Hg10 mi
12:51 AM63 °FClear.8 mph24%30.07 "Hg10 mi
11:51 PM
Sat, Apr 18
65 °FClear.8 mph23%30.05 "Hg10 mi
10:51 PM67 °FClear.5 mph20%30.02 "Hg10 mi
9:51 PM70 °FClear.3 mph20%29.98 "Hg10 mi
Weather by CustomWeather, © 2015

See weather overviewHow to use our weather pages